Regional Weather Roundup
Issued by NWS

Home | Current Version | Previous Version | Text Only | Print | Product List | Glossary Off
Versions: 1 2 3 4 5 6 7 8 9 10 11 12 13 14 15 16 17 18 19 20 21 22 23 24 25 26 27 28 29 30 31 32 33 34 35 36 37 38 39 40 41 42 43 44 45 46 47 48 49 50

000
ASUS43 KMKX 012010
RWRWI

WISCONSIN REGIONAL WEATHER ROUNDUP
NATIONAL WEATHER SERVICE MILWAUKEE/SULLIVAN WI
200 PM CST SUN MAR 01 2015

NOTE: "FAIR" INDICATES FEW OR NO CLOUDS BELOW 12,000 FEET WITH NO
SIGNIFICANT WEATHER AND/OR OBSTRUCTIONS TO VISIBILITY.

WIZ001-002-006>008-014>016-023>028-012100-
NORTHWEST WISCONSIN

CITY           SKY/WX    TMP DP  RH WIND       PRES   REMARKS
SUPERIOR ARPT  SUNNY     25   7  46 W14G23    30.14S WCI  13
ASHLAND        MOSUNNY   26   6  42 SW14G22   30.11F WCI  14
HAYWARD        SUNNY     24   4  42 W8        30.11F WCI  15
SIREN          SUNNY     24   7  49 W13       30.17F WCI  12
CUMBERLAND     SUNNY     23   5  46 W18G24    30.15S WCI   9
RICE LAKE      SUNNY     23   6  46 W12       30.18F WCI  12
CHETEK         SUNNY     24   7  48 W12G18    30.17F WCI  13
LADYSMITH      PTSUNNY   23  10  57 SW12      30.15F WCI  11
EAU CLAIRE     SUNNY     24   9  52 W13       30.19F WCI  12
MENOMONIE      SUNNY     26   6  43 W13       30.20F WCI  15
NEW RICHMOND   SUNNY     24   7  47 W13       30.20F WCI  13
OSCEOLA        SUNNY     25   8  48 W17       30.24F WCI  12
$$

WIZ003>005-009-010-017-018-012100-
NORTH CENTRAL WISCONSIN

CITY           SKY/WX    TMP DP  RH WIND       PRES   REMARKS
MANITOWISH WTR FLURRIES  18   8  65 W13G22    30.06S WCI   5
ARBOR VITAE    FLURRIES  19  10  67 W10G18    30.06F WCI   8
WOODRUFF       FLURRIES  19  10  67 W10G18    30.06F WCI   8
RHINELANDER    CLOUDY    18  10  71 W12G21    30.08F WCI   5
EAGLE RIVER    FLURRIES  18   8  64 W17       30.05F WCI   3
LAND O LAKES   FLURRIES  20  10  64 SW9       30.05S WCI   9
PHILLIPS       CLOUDY    19  10  68 SW9       30.09F WCI   7
TOMAHAWK       LGT SNOW  19  10  69 W9        30.11F WCI   7
MEDFORD        LGT SNOW  18  11  74 W12       30.12F WCI   5
MERRILL        FLURRIES  19  12  72 W14       30.12F WCI   6
$$

WIZ029-030-035-036-043>047-012100-
CENTRAL WISCONSIN

CITY           SKY/WX    TMP DP  RH WIND       PRES   REMARKS
WAUSAU         CLOUDY    19  11  70 W15       30.13F HAZE    WCI   5
MOSINEE        FLURRIES  19  14  79 SW13      30.16F WCI   7
MARSHFIELD     LGT SNOW  19  13  77 W14       30.16F WCI   6
STEVENS POINT  CLOUDY    20  12  71 W12       30.16F WCI   8
WAUPACA        PTSUNNY   30  15  53 SW14G21   30.18F WCI  20
WAUTOMA        PTSUNNY   29  16  58 SW13      30.19F WCI  19
WISC RAPIDS    CLOUDY    22  12  65 W10       30.19F WCI  11
CAMP DOUGLAS   FLURRIES  23  18  80 SW13      30.21F WCI  11
$$

WIZ011>013-019>022-031-037>040-048>050-012100-
NORTHEAST WISCONSIN

CITY           SKY/WX    TMP DP  RH WIND       PRES   REMARKS
ANTIGO         FLURRIES  17  11  77 W14       30.10F WCI   3
SHAWANO        CLOUDY    29  15  56 SW7       30.15F WCI  22
OCONTO         CLOUDY    27  15  61 W12G18    30.15F WCI  16
STURGEON BAY   PTSUNNY   27  14  59 SW15      30.17F WCI  15
GREEN BAY      CLOUDY    27  16  63 SW13      30.17F WCI  16
MANITOWOC      PTSUNNY   28  17  63 W10       30.20F WCI  19
APPLETON       CLOUDY    27  16  63 SW16      30.18F WCI  14
CLINTONVILLE   CLOUDY    28  16  59 SW12      30.16F WCI  18
OSHKOSH        CLOUDY    26  15  63 SW14      30.18F WCI  14
$$

WIZ032>034-041-042-053>061-012100-
SOUTHWEST WISCONSIN

CITY           SKY/WX    TMP DP  RH WIND       PRES   REMARKS
LA CROSSE      SUNNY     27  13  55 W16       30.25F WCI  15
SPARTA         CLOUDY    24  14  64 W13       30.23F WCI  13
VIROQUA        CLOUDY    25  16  66 W15       30.21F WCI  13
BOSCOBEL       MIX PCPN  28  15  58 W12       30.27F WCI  18
PRAIRIE DU CHI PTSUNNY   27  15  61 SW13G20   30.28F WCI  16
PLATTEVILLE    MOSUNNY   26  18  70 SW14      30.26F WCI  15
$$

WIZ056-057-062-063-064-067-068-012100-
SOUTH CENTRAL WISCONSIN

CITY           SKY/WX    TMP DP  RH WIND       PRES   REMARKS
REEDSBURG      CLOUDY    27  16  65 W12       30.21F WCI  16
BARABOO/DELLS  PTSUNNY   26  15  64 SW17G23   30.20F WCI  13
LONE ROCK      PTSUNNY   27  15  61 W12G20    30.25F WCI  17
MINERAL POINT  MOSUNNY   28  18  64 W12       30.23F WCI  18
MADISON        CLOUDY    27  15  61 SW9       30.23F WCI  18
MIDDLETON      PTSUNNY   29  15  55 SW13      30.23F WCI  19
WATERTOWN      MOSUNNY   25  15  65 SW8G17    30.23F WCI  16
MONROE         CLOUDY    27  19  74 SW15      30.24F WCI  15
JANESVILLE     PTSUNNY   27  16  63 W10       30.27F WCI  17
$$

WIZ051-052-058>065-066-070>072-012100-
SOUTHEAST WISCONSIN

CITY           SKY/WX    TMP DP  RH WIND       PRES   REMARKS
MILWAUKEE      MOSUNNY   27  14  58 SW10      30.24F WCI  17
WAUKESHA       MOSUNNY   25  12  58 SW12G17   30.24F WCI  14
MILWAUKEE/TIMM NOT AVBL
RACINE         SUNNY     25  13  60 SW13G20   30.27F WCI  14
BURLINGTON     SUNNY     25  13  62 SW13      30.26F WCI  13
KENOSHA        SUNNY     25  15  66 W13       30.26F WCI  14
FOND DU LAC    PTSUNNY   27  15  61 SW9G21    30.19F WCI  18
SHEBOYGAN      MOSUNNY   26  15  63 SW14      30.20F WCI  14
WEST BEND      MOSUNNY   27  14  59 SW13      30.21F WCI  16
JUNEAU         PTSUNNY   25  15  66 S16       30.22F WCI  12
$$

LSZ147-162-012100-
LAKE SUPERIOR

STATION/POSITION TIME  TEMP    WIND        PRES    WAVE
                       AIR SEA DIR/SP/G            HT/PER
                 (UTC) (F)     (DEG/KT/KT) (MB)    (FT/S)
DEVILS ISLAND    2000   22     230/ 21/ 26 1019.7F
PORT WING        1900   22     240/ 12/ 18 1020.7F
SAXON HARBOR     1900   24     280/  6/ 13 1020.0F
$$

LMZ867-665-643>646-012100-
LAKE MICHIGAN

STATION/POSITION TIME  TEMP    WIND        PRES    WAVE
                       AIR SEA DIR/SP/G            HT/PER
                 (UTC) (F)     (DEG/KT/KT) (MB)    (FT/S)
NORTHPORT PIER   1908   26     220/  4/ 17 1021.3F
SISTER BAY       1943   27     220/ 16/ 20   N/A
KEWAUNEE LAKESHO 1900   26     220/  8/ 12 1022.2F
SHEBOYGAN LAKESH 2000   26     220/ 13/ 15 1024.1F
PORT WASHINGTON  1920   28     250/  9/ 19 1024.7F
MILWAUKEE LAKESH 1900   26     280/  5/  7   N/A
KENOSHA   LAKESH 2000   26     240/ 12/ 15 1025.1F
$$

TC  - TEMPERATURE IN CELSIUS
VSB - VISIBILITY IN STATUTE MILES
WCI - WIND CHILL INDEX
HX  - HEAT INDEX




USA.gov is the U.S. government's official web portal to all federal, state and local government web resources and services.